{"data":{"norad_id":68107,"intl_designator":"2026-044G","name":"STARLINK-37005","alt_names":[],"object_type":"PAYLOAD","status":"ACTIVE","operator":null,"country":"US","launch_date":"2026-03-08","launch_site_code":"AFWTR","launch_vehicle":null,"mission":null,"orbit_class":"UNKNOWN","rcs_meters":null,"size_class":null,"mass_kg":null,"dimensions":null,"purposes":["comms"],"wikipedia_slug":null,"has_3d_model":false,"image_url":null,"decayed_at":null,"tle_current":{"epoch":"2026-09-19T15:37:04.589184Z","epoch_age_seconds":129570,"freshness":"FRESH","line1":"1 68107U 26044G   26262.65074756  .00017832  00000+0  55335-3 0  9990","line2":"2 68107  97.2850 221.5535 0001848  91.2553 268.8901 15.33444765 31307","mean_motion":15.33444765,"eccentricity":0.0001848,"inclination_deg":97.285,"raan_deg":221.5535,"arg_perigee_deg":91.2553,"mean_anomaly_deg":268.8901,"bstar":0.00055335,"rev_number":3130,"period_min":93.906219047936,"perigee_km":464.27916144743,"apogee_km":466.80858589834,"semimajor_km":6843.6808736729,"source":"CELESTRAK","updated_at":"2026-09-20T09:00:43.786198Z"}}}